Regional Weather Roundup
Issued by NWS Jackson, KY

Home | Current Version | Previous Version | Graphics & Text | Print | Product List | Glossary On
Versions: 1 2 3 4 5 6 7 8 9 10 11 12 13 14 15 16 17 18 19 20 21 22 23 24 25 26 27 28 29 30 31 32 33 34 35 36 37 38 39 40 41 42 43 44 45 46 47 48 49 50
233
ASUS43 KJKL 240310
RWRJKL

EAST KENTUCKY HOURLY WEATHER ROUNDUP
NATIONAL WEATHER SERVICE JACKSON KY
1100 PM EDT TUE MAY 23 2017

NOTE: "FAIR" INDICATES FEW OR NO CLOUDS BELOW 12,000 FEET WITH
NO SIGNIFICANT WEATHER AND/OR OBSTRUCTIONS TO VISIBILITY.

* THESE REPORTS ARE NOT UNDER NWS QUALITY CONTROL AND MAY NOT
  REPORT WEATHER SUCH AS PRECIPITATION AND FOG.

KYZ079-080-083-085-087-088-110-112-115-119-120-240400
...EASTERN KENTUCKY...

CITY           SKY/WX    TMP DP  RH WIND       PRES   REMARKS
JACKSON        LGT RAIN  60  59  96 CALM      29.69R
LONDON         CLOUDY    59  57  93 E3        29.67F
SOMERSET*      PTCLDY    59  59 100 CALM      29.68S
MONTICELLO*    CLOUDY    62  59  90 W9        29.69R
WILLIAMSBURG*  CLOUDY    59  59 100 CALM      29.68F
MIDDLESBORO*   CLOUDY    63  63 100 CALM      29.68F
HARLAN APT*    CLOUDY    61  57  88 CALM      29.69R
PIKE CO APT*   DRIZZLE   59  59 100 NE7       29.67F
BIG SANDY APT* RAIN      61  61 100 CALM      29.68S
MOREHEAD APT*  LGT RAIN  63  61  94 SW3       29.71R
ASHLAND*       CLOUDY    64  63  94 CALM      29.66F
$$

KYZ035-036-041-042-044-050-067-078-099-240400
...CENTRAL KENTUCKY...

CITY           SKY/WX    TMP DP  RH WIND       PRES   REMARKS
MT STERLING*   DRIZZLE   63  61  94 SE9       29.68F
FLEMING/MASON* LGT RAIN  62  61  96 SE5       29.69S
DANVILLE*      CLOUDY    59  57  94 E3        29.68R
LEXINGTON      PTCLDY    61  57  87 SE6       29.66S
FRANKFORT      PTCLDY    63  57  81 S5        29.64S
LOUISVILLE     CLOUDY    70  53  54 NW6       29.63S
LEBANON*         N/A     63  57  82 CALM      29.65F
GLASGOW*       CLOUDY    62  56  82 CALM      29.65S
BOWLING GREEN  CLOUDY    68  54  60 W5        29.65S
$$

KYZ091>093-OHZ055-061-077-WVZ005-015-034-035-042-240400
...SOUTHERN OHIO/WEST VIRGINIA...

CITY           SKY/WX    TMP DP  RH WIND       PRES   REMARKS
COVINGTON      CLOUDY    67  57  70 SE13      29.65S
COLUMBUS       CLOUDY    67  56  67 SE7       29.67S
DAYTON         CLOUDY    64  50  60 SE7       29.66F
WILMINGTON     CLOUDY    62  56  80 SE3       29.67R
HUNTINGTON     CLOUDY    63  61  93 N3        29.68R
CHARLESTON     CLOUDY    60  58  92 N3        29.68F
PINEVILLE*     CLOUDY    58  57  96 MISG      29.75S
BECKLEY        CLOUDY    55  52  89 SE13G21   29.73S
BLUEFIELD      CLOUDY    54  52  93 VRB7      29.75R
LOGAN CO APT*  CLOUDY    61  57  88 CALM      29.68F
$$

VAZ002-007-008-TNZ017-027-036-066-071-240400
...SOUTHWEST VIRGINIA/EAST TENNESSEE...

CITY           SKY/WX    TMP DP  RH WIND       PRES   REMARKS
WISE*          RAIN      61  61 100 S5        29.70F
JONESVILLE*    CLOUDY    64  63  94 CALM      29.69S
ABINGDON*      DRIZZLE   61  61 100 E6        29.70F
BRISTOL        CLOUDY    63  62  97 CALM      29.68S FOG
MORRISTOWN*    CLOUDY    64  64 100 SW3       29.67R
SEVIERVILLE*   CLOUDY    64  64 100 CALM      29.66R
KNOXVILLE      TSTM      63  61  93 W8        29.69R FOG
LAFOLLETTE*    CLOUDY    63  61  94 CALM      29.70S
OAK RIDGE      LGT RAIN  65  63  93 SE5       29.68R
CROSSVILLE     CLOUDY    63  62  97 NW7       29.71R
NASHVILLE      MOCLDY    69  57  65 W5        29.66S
$$

...KEY TO REMARKS...
VSB - VISIBILITY IN MILES
WCI - WIND CHILL INDEX
HX  - HEAT INDEX

$$




USA.gov is the U.S. government's official web portal to all federal, state and local government web resources and services.